RH
77 75 80 78 78 81 78 77 77 76 80 82 82 84 85 80 78 78 83 82 87 89 87 86 81 78 86 91 83 75 75 96 96
84 79 79 76 81 80 76 78 78 78 80 83 85 87 85 79 76 74 75 83 86 87 85 84 81 82 94 90 76 75 87 95 95
84 76 80 78 79 78 76 77 77 78 79 81 87 86 86 83 77 75 72 75 87 86 86 84 85 89 94 78 71 84 97 94 76
85 83 79 80 78 75 78 78 78 77 80 80 84 86 86 84 80 77 72 83 88 85 84 86 93 98 94 77 71 84 96 92 75
84 84 83 82 82 80 78 79 78 72 75 80 81 85 87 86 85 79 70 76 81 80 86 90 96 98 85 70 84 94 95 83 75
81 82 84 79 80 81 84 79 78 76 71 68 79 83 84 77 74 82 67 66 77 80 79 91 96 83 66 68 68 92 96 81 80
72 81 83 83 79 79 82 84 82 79 74 71 73 76 86 73 68 81 63 61 77 80 88 88 77 65 66 74 74 91 96 88 76
79 74 76 83 88 84 85 87 88 87 77 72 63 66 77 80 61 67 63 62 78 83 84 93 88 63 70 82 90 94 89 69 86
85 78 72 83 88 91 90 90 78 66 56 42 40 32 43 58 48 67 64 66 72 84 89 94 86 73 81 93 96 94 85 68 67
82 83 79 74 78 90 93 96 93 82 56 52 54 47 45 34 39 62 70 68 70 81 95 97 87 88 89 96 98 93 66 63 68
86 85 85 82 79 77 83 96 94 89 71 55 70 68 73 51 44 73 77 74 72 76 89 98 92 90 91 95 99 93 69 68 67
86 91 98 91 94 90 93 100 100 90 74 68 86 81 82 73 62 81 82 78 78 78 82 94 96 89 89 91 94 89 84 90 83
95 99 100 100 100 99 100 100 99 94 86 69 78 81 89 84 80 79 77 80 81 78 80 83 88 90 90 90 96 96 95 90 85
92 98 100 99 100 99 100 98 99 97 95 91 84 82 90 88 80 78 76 71 65 58 66 82 76 87 87 96 97 92 94 91 91
81 84 87 95 99 100 98 100 100 100 100 100 99 92 88 90 84 82 75 65 61 58 53 62 72 80 82 84 97 98 95 93 94
84 83 86 92 100 99 100 100 100 100 100 100 99 100 98 97 91 84 78 66 65 62 55 56 66 68 80 82 82 93 99 92 92
86 89 88 95 100 100 99 100 99 99 99 96 96 95 97 99 99 92 82 72 68 65 61 58 59 61 65 81 88 83 95 96 95
96 98 99 99 99 99 100 99 100 100 94 99 94 94 89 87 97 99 93 85 77 70 67 64 64 61 60 63 69 80 81 90 99
86 89 93 97 100 98 99 100 100 100 100 96 97 100 100 100 100 97 98 90 84 78 73 71 70 68 61 60 63 63 71 80 84
79 80 78 80 88 93 98 99 99 100 100 100 100 99 100 94 99 98 97 99 95 87 77 70 73 72 67 62 63 62 60 61 67
Wind_Speed
8 8 7 10 13 14 13 12 13 14 17 20 19 19 20 19 17 16 16 15 13 14 14 14 14 15 14 17 18 16 15 19 23
10 9 9 11 13 15 15 13 12 14 19 21 19 17 17 17 17 15 13 15 13 13 13 13 13 15 15 19 16 14 16 21 20
11 10 11 12 15 16 17 17 15 15 19 22 18 15 18 19 16 15 13 13 14 13 13 13 16 17 17 17 16 15 16 18 16
11 12 12 14 15 17 19 19 18 16 17 20 19 15 18 16 16 15 14 16 14 13 12 15 16 19 17 16 11 15 16 16 17
13 13 14 15 16 18 21 21 19 18 17 20 21 18 18 14 17 16 13 13 13 13 16 16 16 19 18 14 14 19 19 16 15
15 16 16 16 18 19 20 22 21 19 17 17 21 18 16 14 16 20 14 12 13 15 16 19 20 19 15 16 15 18 19 16 15
16 17 18 18 19 20 21 21 21 20 20 18 20 20 17 13 14 21 16 14 16 18 18 20 20 19 17 16 18 18 21 20 15
17 18 19 21 22 23 23 22 23 23 21 21 20 22 23 19 14 20 19 17 18 19 21 22 20 21 21 19 20 21 20 15 15
18 20 20 21 24 27 27 27 27 25 25 22 21 21 27 28 22 20 22 23 21 21 24 24 23 21 20 23 23 24 21 18 14
17 18 19 20 23 29 30 31 28 27 26 25 25 23 25 28 27 25 27 27 23 24 22 25 24 21 23 24 25 24 20 18 16
15 18 19 19 21 26 32 34 30 28 26 26 26 24 25 26 30 27 29 28 27 26 25 27 26 24 24 25 27 25 22 22 21
7 9 14 17 19 23 27 30 30 28 28 30 30 28 30 28 29 28 32 30 29 27 27 28 28 28 27 26 28 26 26 24 22
3 3 5 10 17 20 28 30 27 28 28 30 32 33 31 31 32 33 31 33 30 29 29 29 30 33 29 29 29 27 25 26 26
8 5 5 7 7 11 20 23 28 27 29 32 30 32 35 33 33 37 34 31 31 28 27 31 29 32 34 30 30 29 28 28 26
13 13 13 11 8 8 8 20 27 29 26 24 25 29 33 32 35 38 37 35 33 30 28 31 30 31 35 35 32 30 30 29 27
17 16 17 15 13 11 12 12 14 21 27 18 22 27 31 32 33 41 41 40 37 34 32 32 31 32 33 36 35 33 33 31 29
16 17 14 13 13 13 13 12 12 12 22 19 17 4 15 30 36 37 40 43 41 39 36 35 33 32 32 35 37 35 33 33 32
17 15 14 13 12 13 11 12 10 9 15 21 15 3 8 8 22 35 38 39 42 42 41 40 38 35 33 32 34 36 36 36 36
21 20 19 19 19 18 16 14 11 10 8 11 18 25 9 3 3 21 33 38 39 42 42 43 42 39 34 32 33 32 33 35 35
19 20 21 21 22 21 20 21 21 16 11 12 9 8 10 15 2 4 7 26 30 36 41 42 44 42 37 34 34 32 31 32 33
Wind_Direction
205 196 175 165 167 168 164 158 156 152 148 146 143 141 144 145 142 135 130 133 130 131 130 130 132 131 140 137 127 124 129 125 117
217 210 198 181 175 172 168 162 162 159 156 148 149 152 158 156 153 150 146 139 139 140 139 142 144 148 141 133 130 138 135 127 124
219 213 215 200 187 187 179 169 175 170 169 161 159 159 168 168 164 160 154 155 149 150 151 157 151 146 143 139 146 142 137 131 137
232 228 218 219 202 190 184 179 180 182 177 177 168 170 172 178 178 169 161 155 154 161 161 161 163 160 145 150 158 161 139 130 140
229 232 229 223 222 207 190 188 190 192 189 191 181 177 180 189 190 184 177 169 174 181 177 172 171 152 154 161 153 162 149 150 155
236 232 233 228 226 219 205 199 195 194 194 197 196 196 193 197 208 193 191 187 186 182 182 178 163 158 174 176 177 161 150 153 148
241 237 234 230 228 223 218 211 205 199 198 200 203 210 212 209 206 198 205 207 193 189 189 180 177 185 189 181 192 173 157 152 158
243 243 236 232 228 224 219 219 214 210 210 210 214 213 218 222 214 210 210 212 198 199 199 196 187 194 194 190 186 174 165 172 161
244 245 243 238 229 225 220 216 212 208 213 216 218 217 219 224 217 214 218 214 203 202 204 204 191 196 185 181 180 173 170 177 179
253 250 248 248 237 228 224 221 210 208 205 217 220 214 224 219 213 214 218 216 215 205 203 191 192 194 191 191 187 179 195 196 197
264 258 258 257 249 240 231 221 214 220 225 219 221 225 236 225 213 218 215 222 220 213 207 200 196 196 193 192 188 189 194 198 198
278 276 265 271 267 248 235 225 219 221 225 226 225 221 233 230 223 228 220 221 218 219 217 208 204 198 198 199 199 198 196 192 192
63 6 323 290 277 267 243 234 230 228 233 236 231 230 235 240 237 229 222 220 215 218 221 218 211 203 205 207 204 200 198 197 196
34 359 340 356 306 287 253 251 236 232 234 239 240 240 239 242 236 226 215 213 213 215 215 221 226 215 209 211 207 203 202 204 203
12 1 348 339 331 342 313 254 244 244 240 243 243 245 247 247 240 223 214 212 214 216 218 218 223 222 222 215 211 207 204 203 206
13 1 344 341 345 322 314 316 297 226 226 240 244 244 249 247 233 224 220 214 215 218 219 223 222 223 225 223 222 213 209 204 206
15 8 350 350 354 342 338 337 326 301 246 234 247 251 235 244 233 224 219 218 216 218 219 221 223 227 228 227 227 225 218 211 208
48 36 31 24 24 13 356 343 341 319 290 252 240 253 253 204 220 220 218 217 217 220 222 221 223 225 228 231 232 231 230 222 214
54 54 51 47 47 44 32 21 17 0 347 297 275 250 293 289 229 212 214 213 214 218 221 223 225 226 227 229 231 233 232 232 231
46 46 49 49 47 47 44 41 42 43 24 26 351 316 277 251 258 313 216 216 219 218 221 223 226 227 227 229 231 232 233 235 236